This is the latest recevied weather packets stored in our database for station/object K1RFS. If no packets are shown the sender has not sent any weather packets the latest 10 day(s).
| Time | Temp. | Humidity | Pressure | Rain* | Wind** | Luminosity | Snow |
|---|---|---|---|---|---|---|---|
| 1787498229 | 23.33° C | 55% | 1007.6 hPa | 0 mm | - | 30 W/m² | - |
| 1787497924 | 22.78° C | 57% | 1007.3 hPa | 0 mm | - | 29 W/m² | - |
| 1787497620 | 22.78° C | 59% | 1007.4 hPa | 0 mm | - | 29 W/m² | - |
| 1787497315 | 22.22° C | 59% | 1007.3 hPa | 0 mm | - | 27 W/m² | - |
| 1787497014 | 22.22° C | 60% | 1007.3 hPa | 0 mm | - | 27 W/m² | - |
| 1787496714 | 21.67° C | 61% | 1007.4 hPa | 0 mm | - | 26 W/m² | - |
| 1787496409 | 21.67° C | 61% | 1007.4 hPa | 0 mm | - | 26 W/m² | - |
| 1787496104 | 21.67° C | 61% | 1007.3 hPa | 0 mm | - | 26 W/m² | - |
| 1787495798 | 21.11° C | 61% | 1007.4 hPa | 0 mm | - | 25 W/m² | - |
| 1787495494 | 21.11° C | 63% | 1007.4 hPa | 0 mm | - | 25 W/m² | - |
| 1787495191 | 20.56° C | 63% | 1007.3 hPa | 0 mm | - | 24 W/m² | - |
| 1787494886 | 20.56° C | 62% | 1007.3 hPa | 0 mm | - | 22 W/m² | - |
| 1787494581 | 20.56° C | 62% | 1007.4 hPa | 0 mm | - | 21 W/m² | - |
| 1787494281 | 20.56° C | 61% | 1007.4 hPa | 0 mm | - | 20 W/m² | - |
| 1787493977 | 20.56° C | 61% | 1007.3 hPa | 0 mm | - | 17 W/m² | - |
| 1787493673 | 20° C | 63% | 1007.2 hPa | 0 mm | - | 20 W/m² | - |
| 1787493373 | 19.44° C | 66% | 1007.4 hPa | 0 mm | - | 21 W/m² | - |
| 1787493069 | 19.44° C | 66% | 1007.4 hPa | 0 mm | - | 17 W/m² | - |
| 1787492764 | 18.89° C | 66% | 1007.4 hPa | 0 mm | - | 18 W/m² | - |
| 1787492461 | 18.89° C | 67% | 1007.4 hPa | 0 mm | - | 17 W/m² | - |
| 1787492161 | 18.89° C | 67% | 1007.3 hPa | 0 mm | - | 16 W/m² | - |
| 1787491856 | 18.89° C | 66% | 1007.2 hPa | 0 mm | - | 15 W/m² | - |
| 1787491551 | 18.89° C | 65% | 1007.3 hPa | 0 mm | - | 12 W/m² | - |
| 1787491247 | 18.89° C | 66% | 1007.3 hPa | 0 mm | - | 10 W/m² | - |
| 1787490943 | 18.89° C | 67% | 1007.1 hPa | 0 mm | - | 8 W/m² | - |
* Rain latest hour (hover to see other rain measurements)
** Current wind speed in m/s (hover to see current wind gust speed)